| time (UTC) | temp C | wind direction | speed KPH | gust KPH | rain 1hr cm | rain 24hr cm | rain mn cm | humidity % | barometer mb |
| 20260906123007 | 25 | 139 | 0.0 | 3.2 | 0.00 | 0.10 | 0.00 | 87 | 1011.6 |
| 20260906121555 | 25 | 170 | 0.0 | 4.8 | 0.00 | 0.10 | 0.00 | 87 | 1011.6 |
| 20260906120056 | 25 | 135 | 1.6 | 4.8 | 0.00 | 0.10 | 0.00 | 88 | 1011.5 |
| 20260906114513 | 25 | 156 | 1.6 | 4.8 | 0.00 | 0.10 | 0.00 | 88 | 1011.4 |
| 20260906113103 | 25 | 151 | 0.0 | 0.0 | 0.00 | 0.10 | 0.00 | 88 | 1011.2 |
| 20260906111547 | 25 | 143 | 0.0 | 4.8 | 0.00 | 0.10 | 0.00 | 88 | 1011.0 |
| 20260906110018 | 25 | 172 | 0.0 | 3.2 | 0.00 | 0.10 | 0.00 | 89 | 1011.1 |
| 20260906104627 | 25 | 295 | 0.0 | 1.6 | 0.00 | 0.10 | 0.00 | 89 | 1011.0 |
| 20260906103037 | 25 | 177 | 0.0 | 0.0 | 0.00 | 0.10 | 0.00 | 90 | 1011.0 |
| 20260906101533 | 25 | 181 | 0.0 | 1.6 | 0.00 | 0.10 | 0.00 | 90 | 1011.0 |
| 20260906100110 | 25 | 139 | 3.2 | 11.3 | 0.00 | 0.10 | 0.00 | 90 | 1011.0 |
| 20260906094543 | 25 | 300 | 0.0 | 6.4 | 0.00 | 0.10 | 0.00 | 90 | 1010.4 |
| 20260906093103 | 25 | 284 | 0.0 | 0.0 | 0.00 | 0.10 | 0.00 | 89 | 1010.2 |
| 20260906091531 | 26 | 283 | 0.0 | 0.0 | 0.00 | 0.10 | 0.00 | 89 | 1010.2 |
| 20260906090110 | 26 | 221 | 0.0 | 0.0 | 0.00 | 0.10 | 0.00 | 89 | 1010.2 |
| 20260906084556 | 26 | 221 | 0.0 | 0.0 | 0.00 | 0.10 | 0.00 | 89 | 1010.2 |
| 20260906083034 | 26 | 359 | 0.0 | 0.0 | 0.00 | 0.10 | 0.00 | 89 | 1010.0 |
| 20260906081626 | 26 | 359 | 0.0 | 0.0 | 0.00 | 0.10 | 0.00 | 89 | 1010.0 |
| 20260906080007 | 26 | 359 | 0.0 | 0.0 | 0.00 | 0.10 | 0.00 | 89 | 1009.9 |
| 20260906074602 | 26 | 359 | 0.0 | 0.0 | 0.00 | 0.10 | 0.00 | 89 | 1009.9 |
| 20260906073006 | 26 | 359 | 0.0 | 0.0 | 0.00 | 0.10 | 0.00 | 89 | 1009.9 |
| 20260906071554 | 26 | 359 | 0.0 | 0.0 | 0.00 | 0.10 | 0.00 | 89 | 1009.9 |
| 20260906070018 | 26 | 359 | 0.0 | 1.6 | 0.00 | 0.10 | 0.00 | 90 | 1009.8 |
| 20260906064511 | 26 | 359 | 0.0 | 1.6 | 0.00 | 0.10 | 0.00 | 89 | 1010.0 |
| 20260906063058 | 26 | 359 | 0.0 | 3.2 | 0.00 | 0.10 | 0.10 | 89 | 1010.1 |
| 20260906061508 | 26 | 359 | 0.0 | 1.6 | 0.00 | 0.10 | 0.10 | 87 | 1010.1 |
| 20260906060105 | 27 | 359 | 0.0 | 0.0 | 0.00 | 0.10 | 0.10 | 87 | 1010.2 |
| 20260906054537 | 27 | 359 | 0.0 | 0.0 | 0.00 | 0.10 | 0.10 | 87 | 1010.3 |
| 20260906053006 | 27 | 359 | 0.0 | 1.6 | 0.00 | 0.10 | 0.10 | 87 | 1010.3 |
| 20260906051554 | 27 | 359 | 0.0 | 1.6 | 0.00 | 0.10 | 0.10 | 85 | 1010.4 |
| 20260906050044 | 27 | 359 | 0.0 | 1.6 | 0.00 | 0.10 | 0.10 | 82 | 1010.3 |
| 20260906044632 | 27 | 359 | 0.0 | 0.0 | 0.00 | 0.10 | 0.10 | 82 | 1010.4 |
| 20260906043048 | 28 | 359 | 0.0 | 0.0 | 0.00 | 0.10 | 0.10 | 82 | 1010.4 |
| 20260906041546 | 28 | 359 | 0.0 | 0.0 | 0.00 | 0.10 | 0.10 | 82 | 1010.4 |
| 20260906040004 | 28 | 359 | 0.0 | 0.0 | 0.00 | 0.10 | 0.10 | 80 | 1010.4 |
| 20260906034553 | 28 | 359 | 0.0 | 0.0 | 0.00 | 0.10 | 0.10 | 79 | 1010.3 |
| 20260906033014 | 29 | 359 | 0.0 | 0.0 | 0.00 | 0.10 | 0.10 | 78 | 1010.2 |
| 20260906031557 | 29 | 359 | 0.0 | 0.0 | 0.00 | 0.10 | 0.10 | 77 | 1010.2 |
| 20260906030001 | 29 | 359 | 0.0 | 1.6 | 0.00 | 0.10 | 0.10 | 76 | 1010.1 |
| 20260906024551 | 30 | 359 | 0.0 | 1.6 | 0.00 | 0.10 | 0.10 | 75 | 1010.1 |
| 20260906023015 | 30 | 359 | 0.0 | 0.0 | 0.00 | 0.10 | 0.10 | 75 | 1010.0 |
| 20260906021510 | 30 | 359 | 0.0 | 1.6 | 0.00 | 0.10 | 0.10 | 75 | 1010.1 |
| 20260906020042 | 30 | 34 | 0.0 | 0.0 | 0.00 | 0.10 | 0.10 | 74 | 1009.9 |
| 20260906014517 | 31 | 24 | 0.0 | 1.6 | 0.00 | 0.10 | 0.10 | 71 | 1009.7 |
| 20260906013056 | 31 | 45 | 0.0 | 0.0 | 0.00 | 0.10 | 0.10 | 70 | 1009.5 |
| 20260906010002 | 32 | 142 | 0.0 | 0.0 | 0.00 | 0.10 | 0.10 | 67 | 1009.2 |
| 20260906004548 | 32 | 141 | 0.0 | 1.6 | 0.00 | 0.10 | 0.10 | 65 | 1009.1 |
| 20260906003012 | 33 | 99 | 0.0 | 0.0 | 0.00 | 0.10 | 0.10 | 63 | 1009.1 |
| 20260906001605 | 34 | 179 | 0.0 | 1.6 | 0.00 | 0.10 | 0.10 | 60 | 1009.2 |
| 20260906000042 | 35 | 58 | 0.0 | 1.6 | 0.00 | 0.10 | 0.10 | 57 | 1009.2 |
| 20260905234626 | 35 | 148 | 0.0 | 1.6 | 0.00 | 0.10 | 0.10 | 56 | 1009.2 |
| 20260905233111 | 35 | 148 | 0.0 | 3.2 | 0.00 | 0.10 | 0.10 | 53 | 1009.1 |
| 20260905231550 | 36 | 209 | 0.0 | 3.2 | 0.00 | 0.10 | 0.10 | 52 | 1009.1 |
| 20260905230006 | 37 | 155 | 1.6 | 6.4 | 0.00 | 0.10 | 0.10 | 50 | 1009.2 |
| 20260905224617 | 38 | 115 | 0.0 | 4.8 | 0.00 | 0.10 | 0.10 | 48 | 1009.2 |
| 20260905223013 | 38 | 180 | 3.2 | 4.8 | 0.00 | 0.10 | 0.10 | 46 | 1009.2 |
| 20260905221557 | 38 | 45 | 0.0 | 4.8 | 0.00 | 0.10 | 0.10 | 49 | 1009.1 |
| 20260905220002 | 38 | 96 | 1.6 | 9.7 | 0.00 | 0.10 | 0.10 | 47 | 1009.4 |
| 20260905214513 | 37 | 127 | 3.2 | 8.0 | 0.00 | 0.10 | 0.10 | 53 | 1009.4 |
| 20260905213104 | 37 | 143 | 1.6 | 6.4 | 0.00 | 0.10 | 0.10 | 47 | 1009.6 |
| 20260905211539 | 37 | 121 | 0.0 | 3.2 | 0.00 | 0.10 | 0.10 | 46 | 1009.6 |
| 20260905210001 | 37 | 336 | 0.0 | 4.8 | 0.00 | 0.10 | 0.10 | 50 | 1009.7 |
| 20260905204534 | 37 | 139 | 1.6 | 4.8 | 0.00 | 0.10 | 0.10 | 52 | 1009.9 |
| 20260905203108 | 37 | 142 | 0.0 | 6.4 | 0.00 | 0.10 | 0.10 | 49 | 1010.1 |
| 20260905201544 | 37 | 132 | 1.6 | 6.4 | 0.00 | 0.10 | 0.10 | 53 | 1010.2 |
| 20260905200005 | 36 | 208 | 3.2 | 6.4 | 0.03 | 0.10 | 0.10 | 56 | 1010.4 |
| 20260905194600 | 34 | 56 | 0.0 | 3.2 | 0.10 | 0.10 | 0.10 | 63 | 1010.7 |
| 20260905193009 | 32 | 28 | 0.0 | 3.2 | 0.10 | 0.10 | 0.10 | 76 | 1011.0 |
| 20260905191557 | 32 | 359 | 1.6 | 4.8 | 0.10 | 0.10 | 0.10 | 81 | 1011.3 |
| 20260905190041 | 35 | 280 | 1.6 | 8.0 | 0.10 | 0.10 | 0.10 | 65 | 1011.8 |
| 20260905184620 | 35 | 128 | 4.8 | 9.7 | 0.00 | 0.00 | 0.00 | 56 | 1011.5 |
| 20260905183043 | 35 | 110 | 1.6 | 4.8 | 0.00 | 0.00 | 0.00 | 56 | 1011.6 |
| 20260905181500 | 36 | 71 | 4.8 | 16.1 | 0.00 | 0.00 | 0.00 | 52 | 1011.8 |
| 20260905180042 | 36 | 309 | 0.0 | 14.5 | 0.00 | 0.00 | 0.00 | 54 | 1011.5 |
| 20260905174608 | 36 | 268 | 0.0 | 6.4 | 0.00 | 0.00 | 0.00 | 52 | 1011.8 |
| 20260905173057 | 36 | 26 | 0.0 | 6.4 | 0.00 | 0.00 | 0.00 | 52 | 1011.9 |
| 20260905171529 | 37 | 29 | 3.2 | 9.7 | 0.00 | 0.00 | 0.00 | 53 | 1012.2 |
| 20260905170126 | 36 | 81 | 3.2 | 8.0 | 0.00 | 0.00 | 0.00 | 55 | 1012.4 |
| 20260905164507 | 35 | 83 | 0.0 | 4.8 | 0.00 | 0.00 | 0.00 | 57 | 1012.6 |
| 20260905163101 | 34 | 11 | 1.6 | 6.4 | 0.00 | 0.00 | 0.00 | 57 | 1012.9 |
| 20260905161549 | 34 | 62 | 1.6 | 4.8 | 0.00 | 0.00 | 0.00 | 58 | 1012.8 |
| 20260905160036 | 34 | 29 | 0.0 | 4.8 | 0.00 | 0.00 | 0.00 | 60 | 1013.0 |
| 20260905154603 | 33 | 47 | 0.0 | 4.8 | 0.00 | 0.00 | 0.00 | 63 | 1013.1 |
| 20260905153001 | 32 | 297 | 0.0 | 4.8 | 0.00 | 0.00 | 0.00 | 64 | 1013.2 |
| 20260905151556 | 32 | 302 | 0.0 | 3.2 | 0.00 | 0.00 | 0.00 | 68 | 1013.2 |
| 20260905144628 | 31 | 199 | 1.6 | 3.2 | 0.00 | 0.00 | 0.00 | 70 | 1013.2 |
| 20260905143130 | 30 | 220 | 0.0 | 4.8 | 0.00 | 0.00 | 0.00 | 74 | 1013.1 |
| 20260905141554 | 30 | 268 | 0.0 | 4.8 | 0.00 | 0.00 | 0.00 | 75 | 1013.0 |
| 20260905140002 | 28 | 247 | 0.0 | 3.2 | 0.00 | 0.00 | 0.00 | 79 | 1013.1 |
| 20260905134552 | 28 | 226 | 0.0 | 4.8 | 0.00 | 0.00 | 0.00 | 81 | 1013.0 |
| 20260905133005 | 27 | 154 | 0.0 | 3.2 | 0.00 | 0.00 | 0.00 | 85 | 1012.9 |
| 20260905131558 | 26 | 162 | 1.6 | 4.8 | 0.00 | 0.00 | 0.00 | 89 | 1013.0 |
| 20260905124533 | 25 | 150 | 0.0 | 0.0 | 0.00 | 0.00 | 0.00 | 92 | 1012.8 |